Comodoro Rivadavia, Argentina

6:39 AM America en Julio 21, 2017 (GMT +0000)
GEN. Enrique Mosconi International

Tiempo Historia de SAVC - Julio, 2017

Change the Weather History Date:

Lunes, Julio 17, 2017

  Actual Average Record
Temperature  
Temperatura media 48 ° F -  
Temperatura máxima 54 ° F 53 ° F 61 ° F (2012)
Temperatura mínima 43 ° F 38 ° F 24 ° F (2001)
Degree Days  
Grados día de calefacción 16    
Moisture  
Punto de rocío 29 ° F    
Average Humidity 45    
Maximum Humidity 71    
Minimum Humidity 29    
Precipitación  
Precipitación 0.00 pul 0.03 pul - ()
Presión al nivel del mar  
Presión al nivel del mar 30.13 pul    
Viento  
Velocidad del viento 17 mph ()    
Velocidad máxima del viento 31 mph    
Max Gust Speed 48 mph    
Visibilidad 19.0 Millas    
Eventos      
Averages and records for this station are not official NWS values.
T = Trace of Precipitation, MM = Missing Value Source: Averaged Metar Reports

Daily Weather History Graph

Daily Weather History Graph

Search for Another Location

Airport or City:

Trip Planner

Search our weather history database for the weather conditions in past years. The results will help you decide how hot, cold, wet, or windy it might be!

Date:

Astronomía

Jul. 17, 2017 Salida Puesta
Hora real 9:04 AM -03 6:08 PM -03
Crepúsculo civil 8:30 AM -03 6:41 PM -03
Crepúsculo náutico 7:53 AM -03 7:18 PM -03
Crepúsculo astronómico 7:18 AM -03 7:54 PM -03
Luna 2:17 AM -03 (7/17) 1:32 PM -03 (7/17)
Horas de luz 10h 11m
Horas de luz
9h 04m
Cuarto menguante, 41% of the Moon is Illuminated
Jul 17
Cuarto menguante
Jul 23
Nueva
Jul 30
Cuarto creciente
Ago 7
Luna llena
Ago 14
Cuarto menguante

Hourly Weather History & Observations

Hora (-03) Temp. Vientos helados Punto de rocío Humedad Presión Visibilidad Wind Dir Velocidad del viento Velocidad de ráfagas Precip Eventos Condiciones
12:00 AM 47 ° F - 28 ° F 35% 30.18 pul 19 mi Oeste 15.0 mph - -  
12:00 AM 48.2 ° F - 28.4 ° F 46% 30.21 pul - Oeste 15.0 mph - N/A   Despejado
1:00 AM 46.4 ° F 39.2 ° F 26.6 ° F 46% 30.21 pul - Oeste 18.4 mph - N/A   Despejado
2:00 AM 46.4 ° F 38.7 ° F 37.4 ° F 71% 30.21 pul - Oeste 20.7 mph 33.4 mph N/A   Despejado
3:00 AM 45 ° F - 27 ° F 36% 30.16 pul 19 mi Oeste 24.2 mph - -  
3:00 AM 44.6 ° F 35.7 ° F 26.6 ° F 49% 30.18 pul - Oeste 24.2 mph 36.8 mph N/A   Despejado
4:00 AM 44.6 ° F 35.9 ° F 26.6 ° F 49% 30.18 pul - Oeste 23.0 mph - N/A   Despejado
5:00 AM 46.4 ° F 38.1 ° F 28.4 ° F 50% 30.18 pul - Oeste 24.2 mph 36.8 mph N/A   Despejado
6:00 AM 45 ° F - 29 ° F 40% 30.15 pul 19 mi Oeste 21.9 mph - -  
6:00 AM 44.6 ° F 36.1 ° F 28.4 ° F 53% 30.18 pul - Oeste 21.9 mph 33.4 mph N/A   Despejado
7:00 AM 44.6 ° F 35.9 ° F 28.4 ° F 53% 30.18 pul - Oeste 23.0 mph 34.5 mph N/A   Despejado
8:00 AM 44.6 ° F 35.9 ° F 28.4 ° F 53% 30.18 pul - Oeste 23.0 mph 34.5 mph N/A   Despejado
9:00 AM 44 ° F - 29 ° F 43% 30.17 pul 19 mi Oeste 20.7 mph - -   Despejado
9:00 AM 44.6 ° F 36.4 ° F 28.4 ° F 53% 30.18 pul - Oeste 20.7 mph - N/A   Despejado
10:00 AM 46.4 ° F 38.7 ° F 28.4 ° F 50% 30.18 pul - Oeste 20.7 mph 32.2 mph N/A   Despejado
11:00 AM 48.2 ° F - 30.2 ° F 50% 30.18 pul - Oeste 18.4 mph - N/A   Despejado
12:00 PM 52 ° F - 30 ° F 30% 30.09 pul 19 mi ONO 17.3 mph - -   Nubes dispersas
12:00 PM 51.8 ° F - 30.2 ° F 44% 30.18 pul - ONO 17.3 mph 29.9 mph N/A   Despejado
1:00 PM 51.8 ° F - 30.2 ° F 44% 30.18 pul - ONO 13.8 mph - N/A   Despejado
2:00 PM 50.0 ° F - 30.2 ° F 47% 30.18 pul - ONO 12.7 mph - N/A   Despejado
3:00 PM 51 ° F - 28 ° F 29% 30.11 pul 19 mi ONO 13.8 mph - -   Nubes dispersas
3:00 PM 51.8 ° F - 28.4 ° F 41% 30.12 pul - ONO 13.8 mph - N/A   Despejado
4:00 PM 51.8 ° F - 28.4 ° F 41% 30.12 pul - Oeste 16.1 mph - N/A   Despejado
5:00 PM 51.8 ° F - 26.6 ° F 38% 30.06 pul - Oeste 23.0 mph 34.5 mph N/A   Despejado
6:00 PM 51 ° F - 30 ° F 32% 30.04 pul 19 mi ONO 19.6 mph - -   Parcialmente nublado
6:00 PM 51.8 ° F - 30.2 ° F 44% 30.06 pul - ONO 19.6 mph 31.1 mph N/A   Despejado
7:00 PM 50.0 ° F - 35.6 ° F 58% 30.06 pul - Variable 3.5 mph - N/A   Despejado
8:00 PM 50.0 ° F - 32.0 ° F 50% 30.01 pul - Oeste 12.7 mph 36.8 mph N/A   Despejado
9:00 PM 49 ° F - 30 ° F 35% 30.00 pul 19 mi ONO 19.6 mph - -   Parcialmente nublado
9:00 PM 48.2 ° F - 30.2 ° F 50% 30.04 pul - ONO 19.6 mph 32.2 mph N/A   Despejado
10:00 PM 50.0 ° F - 28.4 ° F 43% 29.98 pul - ONO 20.7 mph 36.8 mph N/A   Despejado
11:00 PM 50.0 ° F - 28.4 ° F 43% 29.95 pul - ONO 31.1 mph 48.3 mph N/A   Despejado